Temperature
9 9 9 9 9 9 9 9 9 9 9 9 9 9 9 10 10 10 9 9 9 9 9 9 9 9 9 9 9 9 9 10 10 10 10 10 10 10 10 10 10 10 10
8 8 8 8 8 8 8 8 8 9 9 9 9 9 9 9 9 9 9 9 9 9 9 9 8 8 8 8 8 9 9 9 9 9 9 9 9 9 9 9 9 10 10
8 8 8 8 8 8 8 8 8 8 8 8 8 8 8 8 8 8 8 8 8 8 8 8 8 8 8 8 8 8 8 8 9 9 9 9 9 9 9 9 9 9 9
7 7 7 7 7 7 7 7 8 8 8 7 7 7 7 7 7 8 8 8 8 8 8 8 8 8 7 7 7 8 8 8 8 8 8 8 8 8 8 8 8 8 8
6 6 6 6 7 7 7 7 7 7 7 7 7 7 7 7 7 7 7 7 7 7 7 7 7 7 7 7 7 7 7 7 7 7 7 7 7 8 8 8 8 8 8
6 6 6 6 6 6 6 6 6 6 6 6 6 6 6 6 5 6 6 6 6 6 6 6 7 7 7 7 7 7 7 7 7 7 7 7 7 7 7 7 7 7 7
5 5 5 5 5 5 6 6 6 6 5 5 5 5 5 5 5 5 5 5 5 5 6 6 6 6 6 6 6 6 6 6 6 6 6 6 6 7 7 7 7 7 7
5 5 5 5 5 5 5 5 5 5 5 5 4 4 4 4 4 4 4 4 4 5 5 5 5 5 5 5 6 6 6 6 6 6 6 6 6 6 6 6 6 6 6
4 4 4 4 4 4 4 5 5 5 5 4 4 4 4 3 3 3 3 3 4 4 4 4 4 4 4 5 5 5 5 5 5 5 5 5 5 5 5 5 6 6 6
4 4 4 4 4 4 4 4 4 4 4 4 4 4 4 3 3 2 3 3 3 3 3 3 3 4 4 4 4 4 4 4 4 4 5 5 5 5 5 5 5 5 5
3 3 3 3 3 3 3 3 3 3 3 3 3 3 3 3 3 3 2 2 2 3 3 3 3 3 3 3 3 3 3 4 4 4 4 4 4 4 4 4 4 4 5
3 3 3 3 3 3 3 3 3 3 3 3 3 3 3 3 3 2 2 2 2 2 2 2 2 2 2 2 3 3 3 3 3 3 3 3 3 3 3 3 4 4 4
2 2 2 2 2 2 2 2 2 2 2 2 2 2 2 2 2 2 2 1 1 1 1 2 2 2 2 2 2 2 2 2 2 2 2 3 3 3 3 3 3 3 3
2 2 2 2 2 2 2 1 1 2 1 1 1 1 1 1 1 1 1 1 0 -0 0 1 1 1 1 1 1 1 1 2 2 2 2 2 2 2 2 2 3 3 3
1 1 1 1 1 1 1 1 1 1 1 1 1 1 1 1 1 1 0 0 -0 -1 -1 -0 0 0 0 0 0 0 1 1 1 1 1 1 1 2 2 2 2 2 2
1 1 1 1 1 0 0 0 0 0 0 0 0 -0 -0 -0 -0 -0 -0 -0 -1 -1 -1 -1 -1 -1 -1 -1 -1 -1 -0 -0 0 0 0 0 1 1 1 1 1 1 1
0 0 0 0 0 -0 -0 -0 -0 -0 -0 -0 -1 -1 -0 -1 -1 -1 -1 -1 -1 -1 -2 -2 -1 -1 -1 -1 -1 -1 -1 -1 -1 -0 -0 -0 -0 0 0 0 0 0 1
-0 -0 -1 -1 -1 -1 -1 -1 -1 -1 -1 -1 -1 -1 -1 -1 -1 -1 -1 -2 -2 -2 -2 -2 -2 -2 -2 -2 -2 -2 -2 -2 -1 -1 -1 -1 -1 -1 -1 -1 -0 -0 -0
-1 -1 -1 -1 -1 -1 -1 -1 -2 -2 -2 -2 -2 -2 -2 -2 -2 -2 -2 -2 -2 -3 -3 -3 -3 -3 -3 -3 -3 -3 -2 -2 -2 -2 -2 -2 -1 -1 -1 -1 -1 -1 -1
-2 -2 -2 -2 -2 -2 -2 -2 -2 -2 -2 -2 -2 -2 -2 -2 -2 -3 -3 -3 -3 -3 -3 -4 -4 -4 -4 -3 -4 -3 -3 -3 -2 -2 -2 -2 -2 -2 -2 -2 -2 -2 -2
-2 -2 -2 -3 -3 -3 -3 -3 -3 -3 -3 -3 -3 -3 -3 -3 -3 -3 -4 -4 -4 -4 -4 -4 -4 -4 -4 -4 -4 -4 -4 -4 -3 -3 -3 -3 -3 -2 -2 -2 -2 -2 -2
-3 -3 -3 -3 -3 -3 -3 -4 -4 -4 -4 -4 -4 -4 -4 -4 -4 -4 -4 -4 -5 -5 -5 -5 -5 -5 -5 -5 -5 -5 -5 -5 -4 -4 -4 -3 -3 -3 -3 -3 -3 -3 -3
-4 -4 -4 -4 -4 -4 -4 -4 -4 -4 -4 -4 -4 -4 -4 -4 -5 -5 -5 -5 -5 -5 -5 -5 -5 -5 -5 -5 -6 -6 -5 -5 -5 -5 -5 -4 -4 -4 -4 -4 -4 -4 -4
-4 -4 -4 -4 -5 -5 -5 -5 -5 -5 -5 -5 -5 -5 -5 -5 -5 -5 -5 -5 -5 -5 -5 -6 -6 -6 -6 -6 -6 -6 -6 -6 -6 -5 -6 -6 -5 -4 -4 -4 -4 -4 -4
-5 -5 -5 -5 -5 -5 -5 -5 -6 -6 -6 -6 -6 -6 -6 -6 -6 -6 -6 -6 -6 -6 -6 -6 -6 -6 -6 -6 -7 -7 -7 -7 -6 -6 -6 -7 -6 -6 -5 -5 -5 -5 -5
-6 -6 -6 -6 -6 -6 -6 -6 -6 -6 -6 -6 -6 -6 -7 -7 -7 -7 -7 -7 -7 -6 -6 -6 -6 -6 -7 -7 -7 -7 -7 -7 -7 -7 -7 -7 -7 -7 -7 -6 -6 -5 -5
Wind_Speed
5 5 5 6 6 7 7 7 7 8 8 9 9 9 9 9 10 10 10 11 10 9 8 8 7 7 7 7 7 7 7 6 6 6 6 6 6 6 5 4 4 5 5
6 5 4 5 5 6 6 6 6 7 6 7 8 8 8 8 9 10 10 11 11 9 9 8 7 6 6 6 7 7 7 7 6 6 5 5 5 4 4 3 3 3 3
7 6 4 3 4 5 7 7 7 7 5 6 6 7 7 7 8 8 9 9 10 10 9 8 8 7 7 6 6 7 7 7 6 6 5 5 4 4 3 2 2 2 2
8 6 4 3 4 6 6 5 4 4 4 3 3 4 5 6 7 7 8 8 9 9 9 9 8 7 7 7 6 6 6 6 5 5 5 5 4 4 2 1 0 0 1
8 7 4 4 5 5 4 4 3 3 3 3 3 3 4 4 5 6 7 7 8 8 9 9 9 8 8 7 7 7 5 5 4 4 4 4 4 4 3 2 1 1 0
7 7 5 5 5 4 2 3 3 3 3 2 4 4 3 3 4 4 5 6 7 8 8 8 9 8 8 8 8 7 7 6 5 4 4 4 4 4 4 4 2 2 2
7 6 5 4 4 3 2 3 3 4 3 2 3 3 3 3 3 3 4 5 6 7 8 8 8 8 8 8 9 8 7 7 6 5 5 4 4 4 5 5 5 4 4
7 6 5 4 4 3 3 2 3 2 1 2 2 1 1 2 3 3 2 3 4 6 6 7 8 8 8 8 8 8 8 8 8 7 6 5 5 5 5 5 6 6 5
6 6 5 5 4 4 4 3 3 3 2 1 1 2 2 2 1 2 2 2 2 3 4 5 6 7 7 8 8 8 8 8 8 8 8 7 6 6 6 6 6 7 7
5 6 6 5 4 4 4 4 2 2 3 1 0 1 0 1 2 0 2 2 2 2 2 3 4 6 6 7 7 8 8 9 9 9 9 9 9 7 7 7 8 8 9
4 5 6 5 4 3 4 3 2 2 2 2 1 1 1 1 0 1 1 2 2 2 1 1 2 4 6 7 7 7 8 9 9 9 9 9 9 9 8 8 9 9 10
2 4 5 4 4 4 4 3 3 3 2 2 1 1 1 1 1 1 1 1 2 2 2 2 1 2 4 6 7 8 8 8 9 9 9 10 10 10 10 9 9 10 10
2 3 3 4 4 4 4 4 3 3 3 3 2 1 1 1 1 1 1 1 2 2 2 2 1 1 3 4 6 9 8 8 9 9 10 10 10 10 11 11 10 10 10
4 4 4 4 5 5 5 4 3 2 2 2 2 2 1 1 1 1 2 2 1 2 2 3 2 2 2 4 6 8 8 9 9 9 10 10 10 10 10 11 11 11 11
3 4 4 4 4 5 5 4 3 3 2 2 2 1 1 1 0 1 1 2 2 2 3 3 2 2 3 4 6 7 8 10 10 10 10 10 10 10 10 11 11 11 11
3 4 4 4 4 4 4 4 3 2 3 2 2 2 1 1 1 1 1 1 1 2 3 2 3 3 5 5 7 7 9 10 11 11 10 10 10 10 11 11 11 12 11
4 5 4 4 4 4 4 4 3 3 3 2 2 2 2 2 1 1 1 1 1 1 3 4 3 3 3 4 6 7 8 8 9 11 10 10 10 11 11 11 11 12 11
4 4 4 4 4 3 3 4 4 3 4 3 3 2 2 2 2 1 1 2 2 2 2 4 4 3 4 4 4 5 7 8 9 11 12 11 11 11 11 11 11 12 11
4 4 4 4 4 4 3 3 4 4 3 3 3 3 3 3 3 2 2 2 2 2 2 3 4 3 3 3 4 4 6 6 9 10 11 11 11 11 11 11 11 12 12
5 4 4 3 3 3 3 3 3 3 3 2 2 2 3 4 4 4 3 3 2 2 2 2 3 3 3 3 3 3 5 4 6 8 10 10 11 11 11 11 12 13 13
4 4 3 3 2 3 4 4 4 3 3 2 2 2 2 3 4 4 3 3 3 2 2 3 3 3 3 3 4 3 5 5 6 5 6 7 8 7 9 11 12 12 12
3 4 4 3 3 3 4 6 4 3 3 3 2 2 2 3 4 5 5 5 4 4 4 4 3 4 4 4 4 4 4 5 5 3 4 6 5 5 8 9 11 12 12
3 3 3 3 3 3 5 6 5 3 3 3 3 2 2 2 3 2 4 5 6 7 7 4 5 5 4 4 4 5 5 5 6 5 4 6 4 5 8 10 12 12 12
3 2 3 3 3 3 5 5 5 3 2 3 3 3 3 3 3 3 3 3 4 4 5 4 5 5 4 4 4 5 5 5 5 5 4 5 5 5 8 9 12 11 12
2 2 2 3 3 3 5 5 4 3 2 2 2 2 3 3 5 5 3 3 3 4 6 7 8 7 7 7 5 3 3 3 5 5 2 3 5 5 5 6 8 9 10
2 2 2 2 3 3 5 5 5 3 3 2 2 3 4 4 6 5 3 3 4 4 4 4 5 6 5 6 6 3 3 4 4 4 2 3 4 4 4 3 5 8 10
Wind_Direction
95 88 81 77 72 76 77 75 72 71 69 69 71 73 67 62 59 53 47 47 48 51 55 60 64 67 67 68 66 70 70 70 68 62 61 62 65 64 69 78 77 74 71
114 104 87 81 76 79 83 84 83 81 74 76 72 72 71 70 67 59 53 46 44 46 50 53 59 63 66 68 66 67 66 68 64 58 55 52 55 56 56 66 75 79 72
127 117 101 87 86 90 89 86 82 80 74 72 68 68 72 73 70 65 58 52 43 39 43 46 50 53 56 59 61 62 58 57 55 55 50 48 48 45 44 51 67 79 80
137 125 113 103 106 100 94 88 78 76 65 62 57 57 68 73 70 68 65 60 53 41 37 42 44 45 46 45 49 53 51 45 41 42 41 39 37 30 21 22 45 145 133
143 133 126 122 120 104 92 94 74 86 81 70 67 56 56 65 67 69 68 63 60 52 42 34 36 41 42 37 37 39 39 35 32 31 30 25 18 10 357 339 346 350 239
144 137 129 126 122 110 88 92 90 77 90 87 78 57 33 46 64 66 72 66 61 55 48 39 36 35 39 36 30 26 26 28 26 19 16 11 4 358 354 343 328 325 332
144 139 133 130 126 126 124 120 111 96 73 80 78 51 19 24 46 44 69 72 64 53 49 44 42 39 33 32 27 20 17 17 14 8 3 356 350 347 343 342 343 329 322
151 148 144 148 141 133 130 127 122 118 95 69 99 102 47 1 10 20 32 62 66 55 45 38 39 36 35 30 22 19 14 8 6 4 355 345 344 339 337 335 331 327 312
161 158 157 154 155 154 161 164 154 136 150 38 82 137 157 202 304 345 11 30 52 57 41 34 32 29 29 26 17 13 13 6 4 1 356 345 334 330 327 322 323 319 314
166 162 160 160 162 162 169 181 166 148 151 163 78 47 102 150 160 265 337 357 7 29 20 22 21 23 24 20 12 9 7 3 358 355 351 348 344 334 330 328 323 317 311
169 165 163 162 163 165 168 174 168 162 162 167 170 153 71 47 59 169 238 306 337 331 331 348 12 24 16 14 6 360 0 355 351 348 344 341 338 334 326 323 321 318 314
175 170 166 167 169 169 172 177 173 171 171 153 158 159 169 177 193 193 208 249 284 296 315 311 325 24 10 7 1 353 354 347 342 340 338 336 333 330 327 319 317 318 316
193 191 184 178 177 174 169 166 165 177 175 167 176 190 197 213 190 192 180 220 273 290 302 299 276 337 354 359 351 348 345 340 335 333 332 333 332 328 327 321 316 315 314
194 192 187 182 178 172 168 162 163 178 168 171 180 185 188 238 193 183 184 184 243 286 275 272 294 292 339 343 337 340 340 332 332 331 330 330 330 329 323 323 321 317 312
185 182 180 176 172 168 165 161 175 177 166 173 177 179 197 242 246 212 185 182 186 236 256 259 276 281 305 319 321 329 329 328 323 323 323 322 323 324 324 320 321 316 312
174 173 169 167 166 160 165 161 163 163 159 177 180 171 196 219 219 222 187 211 215 214 244 254 256 278 288 298 308 319 319 316 322 315 313 313 316 317 317 317 318 317 313
171 172 168 167 167 166 163 162 167 165 167 178 186 182 201 203 201 221 210 227 242 222 248 278 278 281 278 280 301 308 311 312 313 311 306 306 308 309 310 313 314 316 314
172 169 163 167 173 174 171 171 173 175 177 185 195 192 208 205 200 215 216 233 241 244 233 265 284 282 281 275 280 293 309 313 309 309 305 301 303 305 307 309 310 313 314
168 166 167 174 179 181 179 179 175 179 183 189 195 200 211 201 213 225 227 232 241 257 241 243 273 281 286 293 293 294 300 306 310 306 306 301 302 305 305 306 306 308 309
171 176 180 180 180 177 177 179 179 178 178 191 203 212 219 213 215 218 224 228 231 240 247 243 266 279 285 293 286 291 303 304 305 306 306 300 300 303 303 304 302 303 304
178 174 173 173 171 176 183 182 186 182 180 188 208 224 230 229 230 228 230 219 213 223 237 248 260 279 282 293 285 288 293 302 301 291 302 298 299 299 300 300 299 299 302
177 171 172 179 188 201 203 200 193 185 187 194 210 233 242 242 243 248 255 250 239 230 231 242 253 257 266 276 285 286 288 298 295 296 302 294 288 284 295 297 293 294 299
174 177 182 185 197 212 210 208 203 182 179 197 209 219 239 252 261 254 256 259 260 262 258 251 249 251 257 261 267 275 275 277 276 285 298 291 282 282 294 294 293 291 295
176 183 187 193 198 213 214 213 207 175 180 200 214 216 224 243 251 248 236 245 251 259 264 262 248 251 258 254 252 262 268 279 281 279 276 282 286 284 292 289 291 293 296
169 185 187 189 197 218 221 217 208 180 193 216 225 224 228 233 249 253 238 237 257 266 268 270 270 271 278 281 281 281 284 290 290 287 278 276 284 297 288 274 284 292 301
173 184 196 201 205 219 228 221 215 190 200 215 231 237 244 248 253 252 229 224 245 260 264 270 275 282 283 286 291 276 264 271 285 285 284 290 289 317 303 283 282 293 298
Height
1532 1533 1533 1534 1534 1535 1535 1536 1536 1537 1538 1538 1539 1539 1540 1540 1540 1541 1541 1542 1543 1543 1544 1544 1544 1545 1545 1545 1545 1545 1545 1545 1546 1546 1546 1547 1547 1548 1548 1548 1549 1549 1549
1531 1531 1532 1532 1533 1534 1534 1535 1535 1536 1536 1537 1537 1538 1538 1539 1539 1540 1540 1541 1541 1542 1542 1543 1543 1543 1544 1544 1544 1544 1544 1544 1544 1545 1545 1545 1546 1546 1546 1547 1547 1548 1548
1529 1530 1530 1531 1531 1532 1533 1533 1534 1535 1535 1536 1536 1536 1537 1537 1538 1538 1539 1539 1540 1540 1541 1541 1541 1542 1542 1542 1542 1543 1543 1543 1543 1543 1543 1544 1544 1544 1545 1545 1546 1546 1546
1527 1528 1528 1529 1530 1530 1531 1532 1532 1533 1533 1534 1534 1535 1535 1536 1536 1537 1537 1537 1538 1538 1539 1539 1539 1540 1540 1540 1541 1541 1541 1541 1541 1541 1542 1542 1542 1542 1543 1543 1544 1544 1544
1525 1526 1527 1527 1528 1529 1529 1530 1531 1531 1532 1532 1532 1533 1534 1534 1535 1535 1535 1535 1536 1536 1537 1537 1538 1538 1538 1538 1538 1539 1539 1539 1539 1539 1540 1540 1540 1540 1540 1541 1541 1541 1542
1523 1524 1524 1525 1526 1527 1527 1528 1529 1530 1530 1530 1531 1531 1532 1533 1533 1533 1533 1534 1534 1534 1535 1535 1535 1535 1536 1536 1536 1536 1537 1537 1537 1537 1537 1538 1538 1538 1538 1538 1538 1538 1539
1520 1521 1522 1523 1523 1524 1525 1526 1527 1527 1528 1529 1529 1529 1530 1531 1531 1531 1531 1532 1532 1532 1533 1533 1533 1533 1533 1533 1533 1534 1534 1534 1535 1535 1535 1535 1535 1535 1535 1536 1535 1535 1535
1517 1518 1519 1520 1521 1522 1523 1523 1524 1525 1526 1527 1528 1527 1528 1530 1528 1529 1529 1530 1530 1530 1531 1530 1531 1531 1531 1531 1531 1531 1531 1532 1532 1532 1532 1532 1532 1532 1532 1532 1532 1532 1532
1514 1515 1516 1517 1518 1519 1520 1521 1522 1522 1523 1525 1526 1527 1527 1526 1526 1527 1527 1528 1528 1528 1528 1528 1528 1528 1529 1529 1529 1529 1529 1529 1529 1529 1529 1529 1529 1529 1529 1529 1529 1529 1529
1511 1512 1513 1514 1515 1516 1517 1518 1519 1520 1521 1521 1523 1524 1525 1524 1525 1524 1525 1525 1526 1526 1526 1526 1526 1526 1526 1526 1526 1526 1526 1526 1526 1526 1526 1526 1526 1526 1525 1525 1525 1525 1525
1507 1508 1510 1511 1512 1513 1514 1515 1516 1517 1518 1519 1520 1520 1521 1522 1522 1522 1521 1522 1522 1523 1523 1523 1524 1523 1523 1523 1524 1523 1523 1523 1523 1522 1522 1522 1522 1521 1521 1521 1521 1520 1520
1503 1504 1506 1507 1508 1509 1511 1512 1513 1514 1515 1516 1517 1518 1518 1519 1519 1519 1519 1519 1519 1520 1520 1520 1521 1521 1520 1520 1520 1520 1520 1519 1519 1519 1518 1518 1517 1517 1517 1517 1516 1516 1516
1499 1500 1501 1503 1504 1506 1507 1509 1509 1511 1512 1513 1514 1515 1515 1516 1516 1516 1516 1516 1516 1516 1516 1517 1517 1517 1517 1517 1517 1516 1516 1515 1515 1515 1514 1513 1513 1512 1512 1512 1512 1511 1511
1495 1497 1498 1499 1501 1502 1504 1505 1506 1507 1508 1509 1510 1511 1512 1512 1513 1513 1514 1514 1513 1513 1512 1513 1513 1514 1514 1513 1513 1513 1512 1511 1511 1510 1509 1509 1508 1508 1507 1507 1506 1506 1506
1492 1493 1494 1495 1497 1498 1500 1501 1502 1503 1505 1505 1507 1507 1508 1509 1510 1510 1510 1511 1511 1510 1509 1508 1509 1510 1510 1510 1509 1508 1507 1506 1506 1505 1505 1504 1504 1503 1502 1502 1502 1501 1500
1488 1489 1490 1491 1492 1494 1496 1497 1498 1499 1501 1502 1503 1504 1505 1506 1506 1507 1506 1507 1507 1507 1506 1505 1505 1505 1506 1505 1505 1504 1503 1502 1501 1501 1500 1499 1499 1498 1498 1497 1496 1496 1495
1485 1485 1486 1487 1488 1490 1491 1493 1494 1495 1497 1498 1499 1500 1501 1502 1502 1503 1503 1503 1504 1503 1502 1501 1501 1501 1501 1501 1500 1500 1499 1497 1496 1496 1495 1495 1494 1493 1493 1492 1491 1490 1490
1481 1482 1483 1484 1485 1486 1488 1489 1490 1491 1493 1494 1495 1496 1497 1498 1498 1499 1499 1499 1499 1499 1499 1497 1497 1497 1497 1496 1496 1495 1494 1493 1492 1491 1490 1490 1489 1488 1488 1487 1486 1485 1484
1477 1479 1479 1480 1482 1483 1484 1485 1487 1488 1489 1490 1491 1492 1493 1493 1494 1494 1495 1495 1495 1495 1495 1494 1493 1493 1492 1492 1491 1490 1489 1488 1487 1486 1485 1485 1484 1483 1482 1482 1481 1480 1479
1474 1475 1476 1477 1478 1479 1480 1481 1483 1484 1485 1486 1487 1488 1488 1489 1490 1490 1490 1491 1491 1491 1491 1490 1489 1488 1488 1487 1487 1485 1483 1483 1482 1481 1480 1480 1479 1478 1477 1476 1475 1474 1473
1470 1472 1473 1474 1475 1476 1477 1478 1479 1480 1481 1482 1482 1483 1484 1484 1485 1486 1487 1487 1487 1486 1486 1486 1485 1484 1483 1483 1482 1481 1479 1478 1477 1477 1475 1474 1473 1472 1471 1470 1469 1468 1467
1467 1468 1469 1470 1471 1472 1473 1475 1476 1476 1477 1477 1478 1479 1479 1480 1481 1481 1482 1482 1483 1483 1482 1482 1481 1480 1479 1479 1478 1477 1475 1474 1472 1472 1470 1468 1468 1466 1465 1464 1463 1463 1462
1463 1464 1465 1466 1467 1469 1470 1471 1472 1473 1473 1474 1474 1475 1475 1476 1476 1476 1477 1477 1478 1478 1478 1478 1477 1476 1475 1474 1474 1473 1471 1470 1468 1467 1465 1462 1462 1460 1460 1458 1458 1457 1456
1460 1461 1462 1463 1464 1465 1467 1468 1469 1469 1470 1470 1471 1471 1471 1471 1472 1472 1472 1472 1472 1472 1473 1473 1472 1471 1471 1470 1470 1469 1467 1465 1464 1463 1461 1458 1456 1454 1453 1452 1451 1451 1450
1457 1458 1459 1460 1461 1462 1463 1464 1465 1465 1466 1466 1466 1466 1467 1467 1468 1468 1468 1468 1467 1467 1468 1468 1468 1467 1466 1466 1466 1465 1462 1460 1458 1457 1456 1454 1451 1448 1446 1445 1445 1445 1444
1454 1456 1456 1457 1458 1459 1460 1461 1462 1462 1462 1462 1462 1462 1462 1463 1463 1464 1464 1463 1463 1463 1463 1463 1462 1462 1462 1461 1461 1460 1459 1457 1454 1452 1451 1450 1447 1444 1440 1438 1439 1439 1437